Flag for Poland Weather past 2 weeks in Toruń, Poland

Now
57 °F

Passing clouds.


Feels Like: 57 °F
Forecast: 50 / 75 °F
Wind: 2 mph from Southeast

Location: Torun

Current Time: Apr 26, 2015 at 11:55:42 PM

Latest Report: Apr 26, 2015 at 10:00 PM


Visibility: 9 mi

Pressure: 29.73 "Hg

Humidity: 82%

Dew point: 52 °F

Location of ToruńLocation

Historic Weather in Toruń — Graph

°F

Toruń temperature yesterday

Maximum temperature yesterday: 73 °F (at 2:00 PM)
Minimum temperature yesterday: 39 °F (at 6:00 AM)
Average temperature yesterday: 59 °F

Past Weeks' High & Low Weather Summary

 TemperatureHumidityPressure
High73 °F (Apr 25, 2:00 PM)95% (Apr 22, 6:00 AM)30.35 "Hg (Apr 22, 6:00 AM)
Low29 °F (Apr 22, 6:00 AM)26% (Apr 25, 2:00 PM)29.70 "Hg (Apr 15, 11:00 PM)
Average50 °F59%30.01 "Hg
* Reported Apr 11 10:00 PM — Apr 26 10:00 PM, Toruń, Weather by CustomWeather, © 2015

Note: Actual official high and low records may vary slightly from our data, if they occured in-between our weather recording intervals... More about our weather records

Advertising

Toruń weather history for previous 24 hours

 ConditionsComfort  
Time TempWeatherWind HumidityBarometerVisibility
10:00 PM
Sun, Apr 26
57 °FPassing clouds.2 mph82%29.73 "Hg9 mi
9:00 PM60 °FPassing clouds.2 mph75%29.73 "Hg12 mi
8:00 PM61 °FScattered clouds.1 mph56%29.72 "Hg31 mi
7:00 PM64 °FScattered clouds.1 mph51%29.72 "Hg22 mi
6:00 PM66 °FPartly sunny.2 mph49%29.72 "Hg19 mi
5:00 PM66 °FPartly sunny.1 mph51%29.72 "Hg25 mi
4:00 PM65 °FPartly sunny.1 mph53%29.73 "Hg22 mi
3:00 PM65 °FPartly sunny.2 mph53%29.74 "Hg25 mi
2:00 PM65 °FOvercast.2 mph58%29.76 "Hg17 mi
1:00 PM60 °FOvercast.2 mph68%29.77 "Hg15 mi
12:00 PM59 °FOvercast.2 mph74%29.78 "Hg12 mi
11:00 AM57 °FOvercast.3 mph76%29.78 "Hg8 mi
10:00 AM58 °FLight rain. Overcast.2 mph68%29.77 "Hg11 mi
9:00 AM60 °FOvercast.3 mph59%29.76 "Hg16 mi
8:00 AM58 °FOvercast.2 mph62%29.75 "Hg19 mi
7:00 AM56 °FLight rain. Overcast.2 mph63%29.75 "Hg22 mi
6:00 AM56 °FOvercast.2 mph60%29.73 "Hg22 mi
4:00 AM57 °FOvercast.1 mph56%29.72 "Hg22 mi
3:00 AM59 °FOvercast.2 mph51%29.72 "Hg22 mi
2:00 AM60 °FOvercast.2 mph49%29.72 "Hg19 mi
1:00 AM61 °FOvercast.3 mph47%29.72 "Hg14 mi
12:00 AM60 °FOvercast.2 mph49%29.73 "Hg12 mi
11:00 PM
Sat, Apr 25
62 °FOvercast.2 mph45%29.72 "Hg12 mi
Weather by CustomWeather, © 2015

See weather overviewHow to use our weather pages